Regional Weather Roundup
Issued by NWS

Home | Current Version | Previous Version | Text Only | Print | Product List | Glossary Off
Versions: 1 2 3 4 5 6 7 8 9 10 11 12 13 14 15 16 17 18 19 20 21 22 23 24 25 26 27 28 29 30 31 32 33 34 35 36 37 38 39 40 41 42 43 44 45 46 47 48 49 50

000
ASUS43 KIND 142109
RWRIN

WEATHER ROUNDUP FOR INDIANA
NATIONAL WEATHER SERVICE INDIANAPOLIS IN
400 PM EST THU DEC 14 2017

NOTE: "FAIR" INDICATES FEW OR NO CLOUDS BELOW 12,000 FEET WITH NO
SIGNIFICANT WEATHER AND/OR OBSTRUCTIONS TO VISIBILITY.

* - STATION DOES NOT REPORT WEATHER SUCH AS PRECIPITATION OR FOG.

+ - STATION NOT QUALITY CONTROLLED BY THE NATIONAL WEATHER SERVICE.
    USE DATA WITH CAUTION...ESPECIALLY DEWPOINT AND RELATIVE
    HUMIDITY OBSERVATIONS.

INZ001>003-010>013-019-020-142200-
NORTHWEST INDIANA

CITY           SKY/WX    TMP DP  RH WIND       PRES   REMARKS
GARY /AIRPORT/ PTSUNNY   30  12  47 W7        30.05S WCI  23
KNOX *+        CLOUDY    27  14  59 CALM      30.05S
LA PORTE +     CLOUDY    23  15  72 S3        30.05R
MICHIGAN CITY+ FLURRIES  25  19  80 S5        30.05R WCI  19
MONTICELLO +   CLOUDY    27  13  54 CALM      30.05R
RENSSELAER +   MOSUNNY   30  14  51 S5        30.06R WCI  25
VALPARAISO       N/A     28  18  66 SW8       30.04S WCI  20

$$

LMZ046-743>745-142200-
SOUTHERN LAKE MICHIGAN

STATION/POSITION TIME  TEMP    WIND        PRES    WAVE
                       AIR SEA DIR/SP/G            HT
                 (UTC) (F)     (DEG/KT/KT) (MB)    (FT)

$$

INZ004-005-014>016-021>024-142200-
NORTH CENTRAL INDIANA

CITY           SKY/WX    TMP DP  RH WIND       PRES   REMARKS
ELKHART        CLOUDY    21   9  58 CALM      30.05R
GOSHEN         CLOUDY    21   9  59 SW5       30.04R WCI  15
LOGANSPORT +   CLOUDY    27  14  59 CALM      30.06R
PERU/GRISSOM   CLOUDY    26  13  56 CALM      30.04R
ROCHESTER +    CLOUDY    28  14  54 CALM      30.05R
SOUTH BEND     CLOUDY    22  13  68 S7        30.05R WCI  13
WARSAW +       CLOUDY    23  10  58 W5        30.04S WCI  17

$$

INZ006>009-017-018-025>027-142200-
NORTHEAST INDIANA

CITY           SKY/WX    TMP DP  RH WIND       PRES   REMARKS
AUBURN +       CLOUDY    23   9  54 CALM      30.03S
FORT WAYNE     PTSUNNY   23  10  57 SW3       30.04S
HUNTINGTON +   CLOUDY    24   9  51 CALM      30.04S
KENDALLVILLE + CLOUDY    21   9  59 W5        30.03R WCI  14

$$

INZ028-029-035-036-043>045-051>053-142200-
WEST CENTRAL INDIANA

CITY           SKY/WX    TMP DP  RH WIND       PRES   REMARKS
CRAWFORDSVL +  PTSUNNY   28  12  50 CALM      30.04S
GREENCASTLE +  CLOUDY    30   9  40 CALM      30.04S
LAFAYETTE      MOSUNNY   30  14  51 CALM      30.05R
TERRE HAUTE    CLOUDY    33  13  43 N6        30.05S WCI  28

$$

INZ030>032-037>040-046>048-054>057-064-065-142200-
CENTRAL INDIANA

CITY           SKY/WX    TMP DP  RH WIND       PRES   REMARKS
COLUMBUS       SUNNY     28  10  47 CALM      30.06R
FRANKFORT +    MOSUNNY   32  13  46 CALM      30.05R
INDIANAPOLIS   CLOUDY    29   9  43 NE3       30.04R
-EAGLE CREEK   MOSUNNY   30   9  41 CALM      30.03R
KOKOMO +       CLOUDY    28  14  55 CALM      30.05R
MARION +       CLOUDY    27  11  51 CALM      30.05R HAZE
MT COMFORT *+  MOSUNNY   30  16  55 NE3       30.03S
SHELBYVILLE    CLOUDY    29  13  51 CALM      30.04R
ZIONSVILLE +   CLOUDY    28  12  52 N3        30.04R

$$

INZ033-034-041-042-049-050-058-059-142200-
EAST CENTRAL INDIANA

CITY           SKY/WX    TMP DP  RH WIND       PRES   REMARKS
MUNCIE         PTSUNNY   28  11  48 NE5       30.03R WCI  23
RICHMOND +     MOSUNNY   25  14  63 CALM      30.02R

$$

INZ060-061-067>069-081>083-085>088-142200-
SOUTHWEST INDIANA

CITY           SKY/WX    TMP DP  RH WIND       PRES   REMARKS
EVANSVILLE     CLOUDY    34  21  59 N3        30.06F
HUNTINGBURG +  CLOUDY    33  21  61 NW5       30.05S WCI  29
WASHINGTON +   CLOUDY    32  17  52 N6        30.06S WCI  26

$$

INZ062-063-066-070>080-084-089>092-142200-
SOUTH CENTRAL AND SOUTHEAST INDIANA

CITY           SKY/WX    TMP DP  RH WIND       PRES   REMARKS
BEDFORD +      SUNNY     34  14  44 W5        30.03R WCI  30
BLOOMINGTON    MOSUNNY   32  12  43 CALM      30.03R
MADISON *+     CLOUDY    32  16  51 NW5       30.05R WCI  27
NORTH VERNON + CLOUDY    28  16  59 NW7       30.04S WCI  21
SEYMOUR +      SUNNY     32  14  47 N3        30.05S

$$




USA.gov is the U.S. government's official web portal to all federal, state and local government web resources and services.